Location: Franzen
(48.6167°N, 15.3833°E)
Time: 09:53:32
(UTC+00:00)

BREEZE-M DEB (TANK) - Pass Details

Date: 22 April 2021
Orbit: 289 x 13025 km, 49.6° (Epoch: 16 May)

Event Time Altitude Azimuth Distance (km) Brightness Sun altitude
Rises 19:10:07 0° 260° (W) 2,601 6.5 -11.1°
Reaches altitude 10° 19:11:29 10° 261° (W) 1,998 5.9 -11.3°
Maximum altitude 19:15:35 87° 351° (N) 1,122 3.8 -11.8°
Drops below altitude 10° 19:30:59 10° 83° (E) 6,881 7.4 -13.9°
Sets 19:40:53 0° 85° (E) 10,116 8.3 -15.1°
